Weather History for Wauseon Fulton County Airport, OH

Change the Weather History Date:

Monday, April 28, 2014

  Actual Average (KTOL) Record (KTOL)
Temperature  
Mean Temperature 47 °F 54 °F  
Max Temperature 50 °F 65 °F 84 °F (1990)
Min Temperature 44 °F 43 °F 23 °F (1946)
Degree Days  
Heating Degree Days 18 11  
Month to date heating degree days 454  
Since 1 July heating degree days 5880  
Cooling Degree Days 0 0  
Month to date cooling degree days 0  
Year to date cooling degree days 0  
Moisture  
Dew Point 39 °F    
Average Humidity 76    
Maximum Humidity 93    
Minimum Humidity 57    
Precipitation  
Precipitation 0.00 in 0.10 in 1.09 in (1981)
Month to date precipitation 2.98  
Year to date precipitation 9.58  
Snow  
Snow 0.00 in 0.00 in - ()
Month to date snowfall 1.3  
Since 1 July snowfall 37.5  
Snow Depth -    
Sea Level Pressure  
Sea Level Pressure 29.87 in    
Wind  
Wind Speed 19 mph (ENE)    
Max Wind Speed 36 mph    
Max Gust Speed 47 mph    
Visibility 10 miles    
Events Rain    
T = Trace of Precipitation, MM = Missing Value Source: NWS Daily Summary

Daily Weather History Graph

Daily Weather History Graph

Search for Another Location

Airport:

Trip Planner

Search our weather history database for the weather conditions in past years. The results will help you decide how hot, cold, wet, or windy it might be!

Date:

Astronomy

Apr. 28, 2014 Rise Set
Actual Time 6:37 AM EDT 8:31 PM EDT
Civil Twilight 6:07 AM EDT 9:01 PM EDT
Nautical Twilight 5:31 AM EDT 9:37 PM EDT
Astronomical Twilight 4:51 AM EDT 10:17 PM EDT
Moon 6:15 AM EDT (4/28) 8:07 PM EDT (4/28)
Length of Visible Light 14h 53m
Length of Day
13h 53m
Waning Crescent, 0% of the Moon is Illuminated
Apr 28
Waning Crescent
Apr 29
New
May 6
First Quarter
May 14
Full
May 21
Last Quarter

Hourly Weather History & Observations

Time (EDT) Temp. Windchill Dew Point Humidity Pressure Visibility Wind Dir Wind Speed Gust Speed Precip Events Conditions
12:15 AM 46.4 °F 39.5 °F 32.0 °F 57% 30.00 in 10.0 mi East 17.3 mph 28.8 mph N/A   Clear
12:35 AM 46.4 °F 39.0 °F 32.0 °F 57% 30.00 in 10.0 mi East 19.6 mph - N/A   Clear
12:55 AM 46.4 °F 39.0 °F 32.0 °F 57% 30.00 in 10.0 mi East 19.6 mph 27.6 mph N/A   Clear
1:15 AM 46.4 °F 38.5 °F 32.0 °F 57% 30.00 in 10.0 mi East 21.9 mph 27.6 mph N/A   Clear
1:35 AM 46.4 °F 38.5 °F 33.8 °F 62% 30.00 in 10.0 mi East 21.9 mph - N/A   Clear
1:55 AM 46.4 °F 39.2 °F 33.8 °F 62% 30.01 in 10.0 mi East 18.4 mph - N/A   Clear
2:15 AM 46.4 °F 39.8 °F 33.8 °F 62% 30.01 in 10.0 mi East 16.1 mph - N/A   Clear
2:35 AM 46.4 °F 39.5 °F 33.8 °F 62% 30.00 in 10.0 mi ENE 17.3 mph - N/A   Clear
2:55 AM 46.4 °F 39.5 °F 33.8 °F 62% 29.99 in 10.0 mi ENE 17.3 mph - N/A   Clear
3:15 AM 44.6 °F 37.4 °F 33.8 °F 66% 29.98 in 10.0 mi ENE 16.1 mph 23.0 mph N/A   Clear
3:35 AM 44.6 °F 37.8 °F 33.8 °F 66% 29.98 in 10.0 mi East 15.0 mph 23.0 mph N/A   Partly Cloudy
3:55 AM 44.6 °F 38.1 °F 35.6 °F 71% 29.98 in 10.0 mi East 13.8 mph 19.6 mph N/A   Scattered Clouds
4:15 AM 46.4 °F 41.1 °F 35.6 °F 66% 29.97 in 10.0 mi East 11.5 mph - N/A   Mostly Cloudy
4:35 AM 46.4 °F 40.1 °F 35.6 °F 66% 29.96 in 10.0 mi ENE 15.0 mph - N/A   Overcast
4:55 AM 46.4 °F 39.8 °F 35.6 °F 66% 29.93 in 10.0 mi ENE 16.1 mph - N/A   Overcast
5:15 AM 46.4 °F 40.7 °F 35.6 °F 66% 29.95 in 10.0 mi East 12.7 mph - N/A   Overcast
5:35 AM 46.4 °F 39.8 °F 37.4 °F 71% 29.93 in 10.0 mi ENE 16.1 mph 21.9 mph N/A   Overcast
5:55 AM 44.6 °F 37.4 °F 37.4 °F 76% 29.93 in 10.0 mi ENE 16.1 mph - N/A   Scattered Clouds
6:15 AM 44.6 °F 37.8 °F 37.4 °F 76% 29.92 in 10.0 mi ENE 15.0 mph - N/A   Clear
6:35 AM 44.6 °F 36.9 °F 37.4 °F 76% 29.91 in 10.0 mi ENE 18.4 mph - N/A   Clear
6:55 AM 44.6 °F 36.4 °F 37.4 °F 76% 29.89 in 10.0 mi ENE 20.7 mph - N/A   Clear
7:15 AM 46.4 °F 39.0 °F 37.4 °F 71% 29.89 in 10.0 mi ENE 19.6 mph 27.6 mph N/A   Clear
7:35 AM 46.4 °F 39.5 °F 37.4 °F 71% 29.91 in 10.0 mi East 17.3 mph 23.0 mph N/A   Mostly Cloudy
7:55 AM 46.4 °F 39.5 °F 37.4 °F 71% 29.92 in 10.0 mi East 17.3 mph - N/A   Overcast
8:15 AM 46.4 °F 39.5 °F 37.4 °F 71% 29.91 in 10.0 mi ENE 17.3 mph - N/A   Overcast
8:35 AM 46.4 °F 38.1 °F 37.4 °F 71% 29.89 in 10.0 mi ENE 24.2 mph - N/A   Overcast
8:55 AM 46.4 °F 38.1 °F 37.4 °F 71% 29.87 in 10.0 mi ENE 24.2 mph 32.2 mph N/A   Overcast
9:15 AM 46.4 °F 37.9 °F 37.4 °F 71% 29.85 in 10.0 mi ENE 25.3 mph 34.5 mph N/A   Overcast
9:35 AM 46.4 °F 37.5 °F 35.6 °F 66% 29.86 in 10.0 mi East 27.6 mph 34.5 mph N/A   Overcast
9:55 AM 46.4 °F 39.8 °F 37.4 °F 71% 29.89 in 10.0 mi East 16.1 mph 25.3 mph N/A Rain Light Rain
10:15 AM 46.4 °F 39.8 °F 37.4 °F 71% 29.91 in 7.0 mi East 16.1 mph - N/A Rain Light Rain
10:35 AM 44.6 °F 38.1 °F 39.2 °F 81% 29.92 in 8.0 mi ENE 13.8 mph - N/A Rain Light Rain
10:55 AM 44.6 °F 36.6 °F 39.2 °F 81% 29.91 in 8.0 mi ENE 19.6 mph - N/A Rain Light Rain
11:15 AM 44.6 °F 35.7 °F 39.2 °F 81% 29.89 in 9.0 mi ENE 24.2 mph - N/A Rain Light Rain
11:35 AM 44.6 °F 35.7 °F 39.2 °F 81% 29.89 in 7.0 mi ENE 24.2 mph 31.1 mph N/A Rain Light Rain
12:15 PM 44.6 °F 35.7 °F 41.0 °F 87% 29.87 in 9.0 mi ENE 24.2 mph 33.4 mph N/A Rain Light Rain
12:35 PM 44.6 °F 34.2 °F 41.0 °F 87% 29.85 in 10.0 mi East 33.4 mph 40.3 mph N/A   Light Drizzle
12:55 PM 44.6 °F 33.9 °F 41.0 °F 87% 29.76 in 10.0 mi East 35.7 mph 47.2 mph N/A   Light Drizzle
1:15 PM 46.4 °F 37.5 °F 41.0 °F 81% 29.79 in 10.0 mi ENE 27.6 mph 42.6 mph N/A   Clear
1:35 PM 46.4 °F 38.3 °F 41.0 °F 81% 29.84 in 10.0 mi East 23.0 mph 34.5 mph N/A   Clear
1:55 PM 48.2 °F - 41.0 °F 76% 29.87 in 10.0 mi East 24.2 mph 29.9 mph N/A   Mostly Cloudy
2:15 PM 48.2 °F - 41.0 °F 76% 29.87 in 10.0 mi East 20.7 mph - N/A   Overcast
2:35 PM 50.0 °F - 41.0 °F 71% 29.84 in 10.0 mi East 23.0 mph 34.5 mph N/A   Overcast
2:55 PM 48.2 °F - 41.0 °F 76% 29.85 in 10.0 mi East 20.7 mph 32.2 mph N/A   Overcast
3:15 PM 46.4 °F 38.3 °F 41.0 °F 81% 29.81 in 6.0 mi East 23.0 mph 28.8 mph N/A   Haze
3:55 PM 46.4 °F 37.9 °F 41.0 °F 81% 29.83 in 10.0 mi East 25.3 mph - N/A   Overcast
4:35 PM 46.4 °F 39.5 °F 41.0 °F 81% 29.86 in 10.0 mi East 17.3 mph - N/A   Overcast
4:55 PM 46.4 °F 40.1 °F 41.0 °F 81% 29.87 in 10.0 mi East 15.0 mph 20.7 mph N/A   Overcast
5:15 PM 48.2 °F - 41.0 °F 76% 29.84 in 10.0 mi ENE 17.3 mph - N/A   Overcast
5:35 PM 46.4 °F 39.5 °F 41.0 °F 81% 29.84 in 10.0 mi East 17.3 mph - N/A   Overcast
5:55 PM 46.4 °F 38.5 °F 39.2 °F 76% 29.82 in 10.0 mi ENE 21.9 mph - N/A   Overcast
6:15 PM 48.2 °F - 39.2 °F 71% 29.80 in 10.0 mi ENE 23.0 mph - N/A   Overcast
6:35 PM 48.2 °F - 41.0 °F 76% 29.76 in 10.0 mi East 24.2 mph 31.1 mph N/A   Overcast
6:55 PM 48.2 °F - 41.0 °F 76% 29.75 in 10.0 mi ENE 19.6 mph 35.7 mph N/A   Overcast
7:15 PM 46.4 °F 39.0 °F 41.0 °F 81% 29.76 in 10.0 mi East 19.6 mph 27.6 mph N/A   Overcast
7:35 PM 46.4 °F 39.5 °F 41.0 °F 81% 29.77 in 10.0 mi East 17.3 mph - N/A   Overcast
7:55 PM 46.4 °F 39.8 °F 42.8 °F 87% 29.78 in 10.0 mi East 16.1 mph - N/A   Overcast
8:15 PM 46.4 °F 39.8 °F 42.8 °F 87% 29.80 in 10.0 mi ENE 16.1 mph - N/A   Overcast
8:35 PM 46.4 °F 39.0 °F 44.6 °F 93% 29.78 in 10.0 mi East 19.6 mph 25.3 mph N/A   Overcast
8:55 PM 46.4 °F 39.2 °F 44.6 °F 93% 29.77 in 10.0 mi East 18.4 mph 28.8 mph N/A   Overcast
9:15 PM 46.4 °F 38.7 °F 44.6 °F 93% 29.78 in 10.0 mi East 20.7 mph 27.6 mph N/A   Overcast
9:35 PM 46.4 °F 39.8 °F 44.6 °F 93% 29.78 in 9.0 mi East 16.1 mph 23.0 mph N/A   Overcast
9:55 PM 48.2 °F - 46.4 °F 93% 29.77 in 6.0 mi East 17.3 mph 25.3 mph N/A   Overcast
10:15 PM 48.2 °F - 46.4 °F 93% 29.76 in 8.0 mi East 17.3 mph 24.2 mph N/A   Overcast
10:35 PM 48.2 °F - 46.4 °F 93% 29.76 in 10.0 mi East 19.6 mph 26.5 mph N/A   Overcast
10:55 PM 48.2 °F - 46.4 °F 93% 29.74 in 9.0 mi East 20.7 mph - N/A   Overcast
11:15 PM 48.2 °F - 46.4 °F 93% 29.74 in 10.0 mi East 16.1 mph 24.2 mph N/A   Overcast
11:35 PM 48.2 °F - 46.4 °F 93% 29.74 in 9.0 mi East 15.0 mph - N/A   Overcast
11:55 PM 48.2 °F - 46.4 °F 93% 29.74 in 8.0 mi ENE 15.0 mph - N/A   Overcast